Preview of NWS' New Version of Forecast
This preview is not operational and should not be used for support decisions.

Regional Weather Roundup (RWR)

Issued by National Weather Service (NWS)

                            
000
ASUS44 KMEG 162310
RWRTN 
TENNESSEE HOURLY STATE WEATHER ROUNDUP
NATIONAL WEATHER SERVICE MEMPHIS TN
500 PM CST SAT FEB 16 2019

TNZ002-004-019-021-049-052-054-088>092-170000-
WEST TENNESSEE
  
CITY           SKY/WX    TMP DP  RH WIND       PRES   REMARKS
MEMPHIS INTL   MOCLDY    40  32  73 E8        29.87R WCI  34          
NWS MEMPHIS      N/A     38 N/A N/A MISG        N/A                   
JACKSON        FAIR      40  32  73 E7        29.86F                  
DYERSBURG      CLOUDY    35  31  85 E10       29.90F WCI  27          
SOMERVILLE     CLOUDY    39  34  81 CALM      29.86R                  
COVINGTON      CLOUDY    37  34  87 NE3       29.90R                  
UNION CITY     CLOUDY    34  30  86 NE10      29.89F WCI  26          
PARIS          CLOUDY    34  32  93 NE6       29.90R WCI  29          
HUNTINGDON     CLOUDY    37  32  81 NE9       29.88F WCI  31          
SELMER         CLOUDY    37  34  87 CALM      29.85F                  
SAVANNAH       CLOUDY    39  36  87 NE5       29.85F                  
$$

TNZ008-025-027-028-033-062-065-066-170000-
NORTH MIDDLE TENNESSEE
  
CITY           SKY/WX    TMP DP  RH WIND       PRES   REMARKS
NASHVILLE      CLOUDY    43  32  65 NE8       29.89F                  
DICKSON        CLOUDY    37  32  81 E6        29.86F WCI  33          
CLARKSVILLE    FAIR      38  31  76 E3        29.90F                  
LEBANON        CLOUDY    43  36  75 SE7       29.88F                  
SMYRNA         FAIR      41  35  79 E6        29.90F                  
MURFREESBORO   CLOUDY    39  36  87 NE7       29.88F WCI  34          
COOKEVILLE     CLOUDY    39  34  81 N7        29.88S WCI  34          
LIVINGSTON     CLOUDY    37  34  87 CALM      29.88S                  
GALLATIN       CLOUDY    43  34  70 NE8       29.92F                  
CROSSVILLE     CLOUDY    35  33  92 NE6       29.87R WCI  30          
ROCKWOOD       CLOUDY    39  36  87 VRB5      29.85R                  
$$

TNZ061-075-076-078-094-096-097-170000-
SOUTH MIDDLE TENNESSEE
  
CITY           SKY/WX    TMP DP  RH WIND       PRES   REMARKS
LAWRENCEBURG   CLOUDY    36  34  93 NE7       29.86F WCI  30          
LEWISBURG      CLOUDY    37  34  87 NE6       29.89S WCI  33          
FAYETTEVILLE   CLOUDY    37  37 100 N7        29.85F WCI  32          
TULLAHOMA      CLOUDY    37  36  93 NE6       29.86F WCI  33          
WINCHESTER     CLOUDY    41  37  87 N6        29.86S                  
MCMINNVILLE    CLOUDY    39  36  87 NE7       29.88S WCI  34          
COLUMBIA       CLOUDY    39  37  93 E7        29.88S WCI  34          
SHELBYVILLE    CLOUDY    37  36  93 NE5       29.88F WCI  34          
$$

TNZ017-018-042-046-047-170000-
NORTHEAST TENNESSEE
  
CITY           SKY/WX    TMP DP  RH WIND       PRES   REMARKS
TRI CITIES     CLOUDY    44  37  76 N7        29.86R                  
ELIZABETHTON   CLOUDY    46  41  81 CALM      29.84S                  
GREENEVILLE    CLOUDY    45  39  81 E5G12     29.84S                  
$$

TNZ012-013-036-069-073-074-170000-
CENTRAL EAST TENNESSEE
  
CITY           SKY/WX    TMP DP  RH WIND       PRES   REMARKS
KNOXVILLE      CLOUDY    45  39  79 N8        29.85R                  
OAK RIDGE      CLOUDY    45  38  76 NE5       29.89R                  
DOWNTOWN KNOXV CLOUDY    46  39  76 CALM      29.87R                  
GATLINBURG     CLOUDY    46  43  87 NE5       29.85R                  
MORRISTOWN     CLOUDY    48  39  71 NE3       29.84R                  
JACKSBORO      CLOUDY    41  36  81 CALM      29.92R                  
$$

TNZ083-085-099-170000-
SOUTHEAST TENNESSEE
  
CITY           SKY/WX    TMP DP  RH WIND       PRES   REMARKS
CHATTANOOGA    CLOUDY    50  41  71 NE6       29.85S                  
DAYTON         CLOUDY    48  41  76 N6        29.86S                  
$$

SKY/WX REPORTED AS FAIR MEANS FEW OR NO CLOUDS BELOW
12 THOUSAND FEET.